2021-033B (48249 NORAD) Tracking and Keplerian Element Data

This shows tracking and keplerian element data for the satellite.

Feedback or suggestion? Click here.




ElementValue
Catalog48249
Name2021-033B
Epoch Orbit457
Epoch Day147.26417751
Epoch Year2021
RAAN222.5886
Inclination97.3977
Eccentricity0.0014386
Argument of Perigee158.8989
Mean Anonmoly286.4543
Mean Motion15.21069324
Decay Rate2.462E-05
L11 48249U 21033B 21147.26417751 .00002462 00000-0 11367-3 0 9999
L22 48249 97.3977 222.5886 0014386 158.8989 286.4543 15.21069324 4575

Live tracking and technical data element details for 2021-033B (NORAD 48249). 2021-033B can be tracked NOW for your location showing map with azimuth and elevation plus other details from your city location.

Track the satellite on the map from your city or location and see movement details for azimuth, elevation, latitude, longitude, range, height, and movement on the map or in text.







IsCatalogInMostPopularTable: catalog: 48249, numindb: 34
Update: records affected: 1



GetName: 48249 2021-033B

Hit Count: updated at: Tue, 03 Aug 2021 20:31:09 GMT